Simultaneous Nadir Overpasses (SNOs) Predictions

Prediction of SNOs between NOAA-19 and NPP Satellite Orbit:

Table of predicted SNOs for the next 14.0 days since TLE Epoch: 12/5/2014
Index Date (NOAA-19) Time (NOAA-19) Lat,Lon (NOAA-19) SZA (NOAA-19 ) Date (NPP) Time (NPP) Lat,Lon (NPP) SZA (NPP ) Distance(km) Time Diff (sec)
1 12/13/2014 11:29:13 -80.91, 139.04 73.21 12/13/2014 11:30:13 -80.92, 138.86 73.21 3.25 60
2 12/13/2014 12:20:09 80.90, -53.48 106.77 12/13/2014 12:20:57 80.90, -53.43 106.74 0.95 48
3 12/13/2014 13:11:15 -80.89, 113.95 73.26 12/13/2014 13:11:42 -80.90, 113.78 73.25 3.10 27
4 12/13/2014 14:02:12 80.90, -78.93 106.77 12/13/2014 14:02:27 80.90, -78.87 106.75 1.07 15
5 12/13/2014 14:53:17 -80.88, 88.86 73.31 12/13/2014 14:53:11 -80.89, 88.69 73.29 2.96 6
6 12/13/2014
